Powrót do katalogu

SL-14 R/B

AktywnyPO
NORAD 22627·ROCKET BODY·🇷🇺 Russia

Wystrzelony Apr 16, 1993 z Plesetsk Cosmodrome

Loading…

Następne Przeloty (najbliższe 24 godziny)

TLE

ŚwieżeSource: Space-Track

Epoka: Sep 14, 2026, 06:10 UTC

1 22627U 93024B   26257.25708664  .00000273  00000-0  32615-4 0  9990
2 22627  82.5230 202.0691 0024205  83.1144 277.2822 14.80196017801056

Śledź SL-14 R/B w czasie rzeczywistym z AllMySat

Download on the App Store